Location: Capvern
(43.1036°N, 0.3160°E)
Time: 15:48:20
(UTC+00:00)

N. Korean satellite - Visible Passes

Search period start: 22 January 2022 00:00
Search period end: 01 February 2022 00:00
Orbit: 447 x 491 km, 97.3° (Epoch: 21 January)

Date Brightness Start Highest point End Pass type
(mag) Time Alt. Az. Time Alt. Az. Time Alt. Az.
22 Jan 9.1 04:38:50 10° NE 04:47:10 - SSE 04:40:04 18° NE visible
22 Jan 8.1 06:12:19 10° NNW 06:14:08 18° NW 06:14:08 18° NW visible
23 Jan 10.0 04:10:56 10° ENE 04:10:59 10° ENE 04:10:59 10° ENE visible
23 Jan 7.4 05:42:33 10° N 05:45:03 33° NW 05:45:03 33° NW visible
24 Jan 7.2 05:13:15 10° NNE 05:22:20 - S 05:15:57 47° NNE visible
25 Jan 8.5 04:44:21 10° NNE 04:52:51 - S 04:46:52 29° ENE visible
25 Jan 8.1 06:18:10 10° NNW 06:20:33 17° WNW 06:20:56 17° WNW visible
26 Jan 9.6 04:16:08 10° NE 04:17:47 15° E 04:17:47 15° E visible
26 Jan 7.1 05:48:13 10° N 05:51:34 35° WNW 05:51:50 35° W visible
27 Jan 6.4 05:18:47 10° N 05:22:26 85° WNW 05:22:47 72° SSW visible
28 Jan 7.9 04:49:45 10° NNE 04:53:12 38° E 04:53:43 36° ESE visible
28 Jan 8.3 06:23:55 10° NNW 06:25:59 15° WNW 06:27:47 11° W visible
29 Jan 9.4 04:21:18 10° NE 04:23:48 17° E 04:24:42 16° ESE visible
29 Jan 7.3 05:53:46 10° N 05:56:59 30° WNW 05:58:45 20° WSW visible
30 Jan 6.4 05:24:13 10° N 05:27:51 72° WNW 05:29:46 26° SSW visible
30 Jan 10.1 17:34:00 10° WSW 17:35:22 12° W 17:36:45 10° WNW visible
31 Jan 7.6 04:55:04 10° NNE 04:58:34 45° E 05:00:52 19° SSE visible
31 Jan 8.4 06:29:38 10° NW 06:31:18 13° WNW 06:32:58 10° W visible
